Location: City of Moscow
(46.7306°N, 116.9989°W)
Time: 14:47:16
(UTC+00:00)

O/OREOS (USA 219) - Visible Passes

Search period start: 11 April 2026 00:00
Search period end: 21 April 2026 00:00
Orbit: 576 x 598 km, 72.0° (Epoch: 11 April)

Date Brightness Start Highest point End Pass type
(mag) Time Alt. Az. Time Alt. Az. Time Alt. Az.
11 Apr ? 10:17:57 24° ESE 10:18:46 25° ESE 10:22:19 10° NE visible
11 Apr ? 11:54:27 19° WSW 11:57:01 37° WNW 12:01:03 10° N visible
12 Apr ? 10:25:15 37° SE 10:25:48 39° ESE 10:29:51 10° NE visible
12 Apr ? 12:01:43 15° W 12:04:20 25° NW 12:07:58 10° N visible
13 Apr ? 10:32:28 58° SE 10:32:55 62° ESE 10:37:12 10° NNE visible
13 Apr ? 12:08:57 11° W 12:11:44 18° NW 12:14:45 10° N visible
14 Apr ? 09:03:10 10° E 09:03:10 10° E 09:03:19 10° E visible
14 Apr ? 10:39:39 72° SW 10:40:04 84° WNW 10:44:25 10° NNE visible
14 Apr ? 12:17:10 10° WNW 12:19:12 13° NW 12:21:12 10° NNW visible
15 Apr ? 09:10:18 16° E 09:10:18 16° E 09:12:05 10° ENE visible
15 Apr ? 10:46:47 50° W 10:47:16 54° WNW 10:51:32 10° NNE visible
16 Apr ? 09:17:24 23° E 09:17:24 23° E 09:19:52 10° NE visible
16 Apr ? 10:53:52 33° WNW 10:54:32 35° WNW 10:58:32 10° N visible
17 Apr ? 09:24:27 33° ENE 09:24:27 33° ENE 09:27:22 10° NE visible
17 Apr ? 11:00:55 23° WNW 11:01:51 24° NW 11:05:25 10° N visible
18 Apr ? 09:31:28 46° NE 09:31:28 46° NE 09:34:41 10° NNE visible
18 Apr ? 11:07:56 16° WNW 11:09:14 17° NW 11:12:09 10° N visible
19 Apr ? 09:38:27 54° NNE 09:38:27 54° NNE 09:41:52 10° NNE visible
19 Apr ? 11:14:55 10° WNW 11:16:40 12° NW 11:18:32 10° NNW visible
20 Apr ? 08:08:56 12° ENE 08:08:56 12° ENE 08:09:35 10° ENE visible
20 Apr ? 09:45:24 46° NNW 09:45:24 46° NNW 09:48:56 10° NNE visible
